COSMOS 2251 DEB, 34544

Orbit data source: Space-Track

COSMOS 2251 DEB, 34544 is space debris in LEO originally from a launch on Wed, 16 Jun 1993 UTC launched from the Plesetsk Missile And Space Complex (PKMTR). The debris from Iridium 33, an American commercial communications satellite, has been tracked extensively since its accidental collision with the defunct Russian satellite Cosmos 2251 in 2009. This event, occurring at high speed in low Earth orbit (LEO), generated thousands of pieces of space debris, significantly increasing the risk of further collisions. The Iridium 33 debris cloud has impacted space traffic management and orbital debris mitigation strategies, making it a subject of ongoing study in space situational awareness.

Loading next visibility...
Identifier
34544, 1993-036UE
Orbit
LEO
Country
Flag of CISCIS
Related business
Manufacturer
Unknown
Mission
Spacecraft
Bus & Motor
Unknown
Mass
Unknown
Launch date (UTC)
1993-06-16 (32 years ago)
Launch vehicle
Unknown
Launch site
Plesetsk Missile And Space Complex (PKMTR)
Object type
Payload
Rocket body
Debris
Shape & HBR
Unknown shape, 0.1 m
Radar Cross Section
Small (<0.1 m²)

Expand to show TLE details & history
Last TLE update: 19 hours ago

TLE from 19 hours ago
0 COSMOS 2251 DEB
1 34544U 93036UE  25299.42177433  .00001392  00000-0  12862-2 0  9995
2 34544  73.9141 280.6365 0385794 317.5605 200.8483 13.54601929822412
Epoch: 2025-10-26T10:07Z
TLE epoch observation values (Epoch: 2025-10-26T10:07:21.302Z)
Latitude
22.16066°
Longitude
-92.95192°
Altitude
1,327.049 km
Speed
7.064 km/s
True Right ascension
06h 15m 42s
True Declination
22° 02' 59"
Sunlit
Object was in daylight at epoch
Visualization orbit readout
Latitude
Unknown
Longitude
Unknown
Altitude
Unknown
Speed
Unknown
Apparent Right ascension
Unknown
Apparent Declination
Unknown
Sunlit
N/A
Visualization observer readout
Local Sidereal Time
00:47:30
Azimuth
Unknown
Elevation
Unknown
Doppler factor
Unknown
Orbital elements
Apogee altitude
1,339.787 km
Perigee altitude
766.402 km
Semi-major axis
7,431.232 km
Eccentricity
0.03858
Inclination
73.9141°
RAAN
280.6365°
Arg. of periapsis
317.5605°
True anomaly
199.34306°
Mean anomaly
200.8483°
Eccentric anomaly
200.08906°
Mean motion
3.38807 °/min
Orbital period
106.26 mins
BSTAR
0.0012862
Loading maneuver chart data...
Computing Atmospheric mass density...

Documentation

Showing up to 5 results
|